Flag for Germany Weather past 2 weeks in Sankt Ingbert, Saarland, Germany

Now
61 °F

Overcast.


Feels Like: 61 °F
Forecast: 46 / 61 °F
Wind: 7 mph from South

Location: Saarbruecken / Ensheim

Current Time: May 29, 2015 at 2:54:54 PM

Latest Report: May 29, 2015 at 2:00 PM


Visibility: 28 mi

Pressure: 29.86 "Hg

Humidity: 71%

Dew point: 51 °F

Location of Sankt IngbertLocation

Historic Weather in Sankt Ingbert — Graph

°F

Sankt Ingbert temperature yesterday

Maximum temperature yesterday: 67 °F (at 4:00 PM)
Minimum temperature yesterday: 44 °F (at 2:00 AM)
Average temperature yesterday: 56 °F

Past Weeks' High & Low Weather Summary

 TemperatureHumidityPressure
High69 °F (May 18, 6:00 PM)100% (May 21, 6:00 AM)30.37 "Hg (May 21, 6:00 AM)
Low35 °F (May 21, 6:00 AM)37% (May 21, 7:00 PM)29.72 "Hg (May 18, 8:00 PM)
Average54 °F72%30.08 "Hg
* Reported May 14 2:00 PM — May 29 2:00 PM, Sankt Ingbert, Weather by CustomWeather, © 2015

Note: Actual official high and low records may vary slightly from our data, if they occured in-between our weather recording intervals... More about our weather records

Advertising

Sankt Ingbert weather history for previous 24 hours

 ConditionsComfort  
Time TempWeatherWind HumidityBarometerVisibility
2:00 PM
Fri, May 29
61 °FOvercast.7 mph71%29.86 "Hg28 mi
1:00 PM60 °FOvercast.7 mph76%29.88 "Hg28 mi
12:00 PM60 °FOvercast.6 mph75%29.90 "Hg28 mi
11:00 AM58 °FOvercast.5 mph75%29.92 "Hg25 mi
10:00 AM58 °FOvercast.3 mph74%29.92 "Hg25 mi
9:00 AM57 °FOvercast.3 mph78%29.93 "Hg19 mi
8:00 AM55 °FOvercast.1 mph80%29.94 "Hg17 mi
7:00 AM49 °FOvercast.1 mph94%29.96 "Hg16 mi
6:00 AM46 °FPartly sunny.No wind97%29.98 "Hg12 mi
5:00 AM46 °FPassing clouds.1 mph97%29.98 "Hg12 mi
4:00 AM47 °FPassing clouds.No wind97%29.99 "Hg12 mi
3:00 AM49 °FPassing clouds.1 mph92%30.01 "Hg22 mi
2:00 AM51 °FOvercast.1 mph90%30.01 "Hg22 mi
1:00 AM52 °FOvercast.1 mph85%30.01 "Hg22 mi
11:00 PM
Thu, May 28
53 °FPassing clouds.2 mph81%30.01 "Hg25 mi
10:00 PM57 °FPassing clouds.3 mph72%29.99 "Hg25 mi
9:00 PM62 °FPartly sunny.7 mph59%29.97 "Hg28 mi
8:00 PM64 °FOvercast.7 mph56%29.95 "Hg37 mi
7:00 PM67 °FOvercast.9 mph48%29.94 "Hg37 mi
6:00 PM67 °FOvercast.9 mph47%29.95 "Hg37 mi
5:00 PM67 °FOvercast.9 mph44%29.96 "Hg31 mi
4:00 PM67 °FOvercast.10 mph44%29.96 "Hg28 mi
3:00 PM67 °FOvercast.9 mph47%29.98 "Hg25 mi
2:00 PM66 °FPartly sunny.8 mph46%29.99 "Hg22 mi
Weather by CustomWeather, © 2015

See weather overviewHow to use our weather pages